TimeCST,TemperatureF,Dew PointF,Humidity,Sea Level PressureIn,VisibilityMPH,Wind Direction,Wind SpeedMPH,Gust SpeedMPH,PrecipitationIn,Events,Conditions,WindDirDegrees,DateUTC
12:55 AM,35.6,33.3,91,30.22,4.0,SSW,3.5,-,N/A,,Clear,200,2012-11-04 05:55:00
1:55 AM,35.2,33.4,93,30.22,4.0,Calm,Calm,-,N/A,,Clear,0,2012-11-04 06:55:00
1:55 AM,34.3,32.7,94,30.22,4.0,Calm,Calm,-,N/A,,Clear,0,2012-11-04 07:55:00
2:55 AM,31.5,31.1,99,30.21,7.0,Calm,Calm,-,N/A,,Clear,0,2012-11-04 08:55:00
3:55 AM,30.7,30.4,99,30.20,6.0,Calm,Calm,-,N/A,,Clear,0,2012-11-04 09:55:00
4:55 AM,34.2,33.8,99,30.22,5.0,Calm,Calm,-,N/A,,Partly Cloudy,0,2012-11-04 10:55:00
5:55 AM,32.7,32.5,99,30.24,10.0,Calm,Calm,-,N/A,,Mostly Cloudy,0,2012-11-04 11:55:00
6:55 AM,32.7,32.4,99,30.25,4.0,East,3.5,-,N/A,,Scattered Clouds,100,2012-11-04 12:55:00
7:55 AM,36.1,35.8,99,30.25,3.0,Calm,Calm,-,N/A,,Overcast,0,2012-11-04 13:55:00
8:55 AM,40.5,40.3,99,30.26,4.0,SSW,3.5,-,N/A,,Mostly Cloudy,200,2012-11-04 14:55:00
9:55 AM,46.9,42.3,84,30.26,4.0,South,6.9,-,N/A,,Haze,180,2012-11-04 15:55:00
10:55 AM,51.4,41.2,68,30.24,10.0,SSW,5.8,-,N/A,,Clear,200,2012-11-04 16:55:00
11:55 AM,54.9,40.1,58,30.22,10.0,SSE,5.8,-,N/A,,Clear,150,2012-11-04 17:55:00
12:55 PM,55.8,38.3,52,30.18,10.0,Calm,Calm,-,N/A,,Partly Cloudy,0,2012-11-04 18:55:00
1:55 PM,56.8,38.7,51,30.15,10.0,SSE,4.6,-,N/A,,Partly Cloudy,150,2012-11-04 19:55:00
2:55 PM,57.2,38.7,50,30.13,9.0,ESE,8.1,-,N/A,,Partly Cloudy,120,2012-11-04 20:55:00
3:55 PM,55.6,38.1,52,30.12,8.0,SSE,5.8,-,N/A,,Scattered Clouds,150,2012-11-04 21:55:00
4:55 PM,53.8,37.6,54,30.12,9.0,SSE,4.6,-,N/A,,Scattered Clouds,160,2012-11-04 22:55:00
5:55 PM,52.2,36.9,56,30.12,8.0,SE,4.6,-,N/A,,Clear,140,2012-11-04 23:55:00
6:55 PM,50.2,38.3,64,30.12,8.0,SE,5.8,-,N/A,,Mostly Cloudy,130,2012-11-05 00:55:00
7:55 PM,48.4,38.8,70,30.11,9.0,East,5.8,-,N/A,,Scattered Clouds,100,2012-11-05 01:55:00
8:55 PM,47.5,38.5,71,30.11,8.0,East,5.8,-,N/A,,Partly Cloudy,100,2012-11-05 02:55:00
9:34 PM,48.2,37.4,66,30.12,8.0,ENE,3.5,-,N/A,,Mostly Cloudy,60,2012-11-05 03:34:00
9:55 PM,47.8,36.5,65,30.11,9.0,East,4.6,-,N/A,,Scattered Clouds,80,2012-11-05 03:55:00
10:27 PM,48.2,37.4,66,30.09,9.0,ESE,5.8,-,N/A,Rain,Light Rain,120,2012-11-05 04:27:00
10:55 PM,46.6,38.3,73,30.09,9.0,ESE,5.8,-,0.00,,Light Drizzle,110,2012-11-05 04:55:00